COSMOS 2251 DEB

Satellite information

Favourite Embed

Satellite Type and Status

DEBRISIN ORBIT

Key statistics

Satellite COSMOS 2251 DEB at a glance.

Uptime

11869

Days in orbit

Revolutions

≈ 14.6

Per day

Orbit

LEO

Low Earth Orbit

Inclination

74.0

Latest

Satellite identification and parameters

Extended collection of information and parameters for COSMOS 2251 DEB.

Object identification

Identified? True

Debris? True

Object name: COSMOS 2251 DEB

International designator: 1993-036ADV

Object number (NORAD): 34924

Object ID (CCSDS): 34924

Country: COMMONWEALTH OF INDEPENDENT STATES (CIS)

Current information (Y/N): Y

RCS size: SMALL

Orbital parameters

Period: 98.628 minutes

Inclination: 74.0406 deg

SMA: 7071.233 km

Apoapsis: 731.581 km

Periapsis: 654.615 km

RAAN: 90.6311 deg

Eccentricy: 0.00544218

Argument of periapsis: 175.3806 deg

Mean anomaly: 256.7074 deg

Mean motion: 14.6002427 rev/day

Mean motion (dot): 0.0000803 rev/day2

B* drag term: 0.0016423651 1/REarth

Two-line elements (TLE)

Creation date: Dec. 12, 2025, 10:14 a.m.

Reference frame: TEME

Reference center: EARTH

Epoch: Dec. 12, 2025, 2:52 a.m. UTC

TLE line 0: 0 COSMOS 2251 DEB

TLE line 1: 1 34924U 93036ADV 25346.11963808 .00008030 00000-0 16424-2 0 9999

TLE line 2: 2 34924 74.0406 90.6311 0054422 175.3806 256.7074 14.60024270877146

Live tracking on map

Real-time ground track for satellite COSMOS 2251 DEB.

In-orbit conjunctions

A list of the most updated potential collisions computed for object COSMOS 2251 DEB.

Target Orbit TCA Probability of collision Miss distance Type
ATLAS CENTAUR 2 DEB LEO 2025-03-29 16:52:28 0.0005691106 180.0 (m) DEBRIS
FENGYUN 1C DEB SSO 2024-11-12 01:07:28 0.0001207791 655.0 (m) DEBRIS

Associated space launch

Military communications satellite. Destroyed in a collision with Iridium 33.

COSMOS 2251 DEB was lifted into orbit during the mission ‘Kosmos-3M | Strela-2M 51’, on board a Kosmos-3M space rocket.

The launch took place on June 16, 1993, 4:17 a.m. from 132/1 (132L).

For more information about the launch, click the button.

Launch to space Kosmos-3M | Strela-2M 51
Kosmos-3M | Strela-2M 51

Agency: N/A

Status: Launch Successful

Launch date: June 16, 1993, 4:17 a.m. UTC

Rocket: Kosmos-3M

Launch pad: 132/1 (132L)

Location: Plesetsk Cosmodrome, Russian Federation

...

Latest news about this satellite

There are no fresh news available about this satellite. Check back as we update our databases every day.


Newsletter sign-up

Weekly statistics, charts and insights to help you stay on top of the space industry.